Regional Weather Roundup
Issued by NWS Midland/Odessa, TX

Skip options and go directly to product.
Home | Oldest Version | Previous Version | Current Version | All | Graphics & Text | Save Text | Print | Product List | Glossary On

Skip product version selection by date and time.   
933
ASUS44 KMAF 052310
RWRMAF
MIDLAND AREA WEATHER ROUNDUP
NATIONAL WEATHER SERVICE MIDLAND TX
600 PM CDT THU MAY 05 2016

...IN SOUTHWEST TEXAS AND SOUTHEAST NEW MEXICO...

CITY           SKY/WX    TMP DP  RH WIND       PRES   REMARKS
ALPINE         PTSUNNY   81  22  11 SE10G17   30.15S
ANDREWS        FAIR      85  28  12 SE10G16   30.05R
ARTESIA        SUNNY     86  25  10 SE18G24   30.01F
BIG SPRING     CLOUDY    83  37  19 SE12      30.05S
CARLSBAD       SUNNY     87  25  10 SE13G21   29.99F
DRYDEN           N/A     89  28  11 E15G22    29.99F
FORT STOCKTON  MOSUNNY   84  26  12 SE12      30.03F
GUAD PASS      SUNNY     79  18  10 E10G28    30.13F
HOBBS          SUNNY     84  25  11 S16G22    30.06F
MARFA          CLOUDY    80  27  14 SE8       30.12F
MIDLAND AIRPK  PTSUNNY   87  30  12 S10       30.04S
MIDLAND INTL   MOSUNNY   87  30  13 S16G23    30.03F
ODESSA         MOSUNNY   85  28  12 S14G21    30.04F
PECOS          MOSUNNY   89  26  10 SE16      29.99S
PRESIDIO       FAIR      93  33  12 E6        29.94F
SEMINOLE       CLOUDY    86  26  11 S10G21    30.05S
SNYDER           N/A     84  40  20 S9        30.03F
WINK           MOSUNNY   87  26  11 S14G24    30.00S
$$
...OTHER STATIONS IN TEXAS...

CITY           SKY/WX    TMP DP  RH WIND       PRES   REMARKS
ABILENE        SUNNY     83  48  29 SE6       30.02F
AMARILLO       SUNNY     84  32  15 S7        30.02F
AUSTIN         CLOUDY    83  53  35 NE7       29.97F
BROWNSVILLE    SUNNY     85  54  34 SE10      29.95F
CORPUS CHRISTI PTSUNNY   90  50  25 E13       29.93F
DALLAS FTW     MOSUNNY   82  46  28 N6        29.99F
DEL RIO        SUNNY     88  36  15 E8        29.96F
EL PASO        MOSUNNY   89  30  12 S12G28    29.95F
HOUSTON INT    PTSUNNY   81  44  27 NW13      29.94F
LUBBOCK        MOSUNNY   87  28  12 S9        30.02F
SAN ANGELO     CLOUDY    85  42  22 SE10      30.00F
SAN ANTONIO    PTSUNNY   85  52  32 E5        29.98F
WACO           SUNNY     83  49  30 N9        29.98F
WICHITA FALLS  NOT AVBL
$$
...OTHER LOCATIONS IN NEW MEXICO...

CITY           SKY/WX    TMP DP  RH WIND       PRES   REMARKS
ALAMAGORDO     SUNNY     86  27  11 SE17      29.99F
ALBUQUERQUE    MOSUNNY   82  23  11 SW15G25   30.02F
CANNON AFB     NOT AVBL
CLOVIS         SUNNY     82  25  12 S13G18    30.06F
HOLLOMAN AFB   SUNNY     88  23   9 S12       29.96F
ROSWELL        SUNNY     87  18   8 SE14G25   30.01F
RUIDOSO        MOSUNNY   73  19  13 S18G29    30.18F
SANTA FE       MOSUNNY   77  22  13 SE14      30.09F
TRUTH OR CONSE SUNNY     85  28  12 SE14G21   29.97F
TUCUMCARI      SUNNY     87  15   7 MISG      30.00F
$$

USA.gov is the U.S. government's official web portal to all federal, state and local government web resources and services.